Showing default

HONGYUN 1, 43871

Orbit data source: Space-Track

HONGYUN 1, 43871 is a payload satellite owned by CASIC (CN) in LEO that was launched on Fri, 21 Dec 2018 UTC via a CHANG ZHENG 11 launch vehicle from the Jiuquan Satellite Launch Center, China (JSC). Payloads include a variety of satellites, spacecraft, and rockets equipped with specific instruments for various scientific and technological missions. These include communications satellites like Starlink; space stations such as the ISS; scientific satellites like the Hubble; Earth observation satellites from companies like Planet Labs, Umbra, and HawkEye 360; GPS; miniature CubeSats for education and research; and military/defense satellites.

Loading next visibility...
HONGYUN 1 details
Identifier
43871, 2018-108A
Orbit
LEO
Last TLE update9 hours ago
Origin
Flag of CNCASIC (CN / PRC)
ManufacturerCASIC
MissionOperational Civil Communications
Bus & MotorHONGYUN, Unknown motor
Mass~250 kg wet, ~250 kg dry
Launch date (UTC)
2018-12-21 (6 years ago)
Launch vehicle
CHANG ZHENG 11
Launch site
Jiuquan Satellite Launch Center, China (JSC)
Object type
Payload
Rocket body
Debris
Shape & HBRBox + 2 Pan, 4 m
Radar Cross Section1.356 m², Large (>1 m²)

Expand to show TLE details & history

TLE from 9 hours ago
0 HONGYUN 1
1 43871U 18108A   24346.59603520  .00000004  00000-0  75170-4 0  9998
2 43871  99.8145   6.3661 0011772 309.2779  50.7311 13.50556261294486
Epoch: 2024-12-11T14:18Z
Definitive object data (Epoch: 2024-12-11T14:18:17.441Z)
Latitude0.00005°
Longitude71.00497°
Altitude1,067.45 km
Speed7.321 km/s
True Right ascension00h 25m 27s
True Declination0° 00' 00"
Sunlit
Object was in daylight at TLE epoch
Visualization TLE readout
Latitude-44.13266°
Longitude80.97259°
Altitude1,078.39 km
Speed7.316 km/s
Apparent Right ascension04h 54m 30s
Apparent Declination-62° 30' 13"
Sunlit
Object is in daylight
Visualization observer readout
Local Sidereal Time21:22:31
Azimuth143.03° SSE
Elevation-45.033°
Doppler factor1
Orbital elements
Apogee altitude1,076.284 km
Perigee altitude1,058.754 km
Semi-major axis7,445.656 km
Eccentricity0.0011772
Inclination99.8145°
RAAN6.3661°
Arg. of periapsis309.2779°
True anomaly50.83563°
Mean anomaly50.7311°
Eccentric anomaly50.78336°
Mean motion3.37823 °/min
BSTAR0.00007517
Orbital period106.56 mins
Loading maneuver chart data...
Loading historical data...
Loading historical data...
Loading historical data...
Loading historical data...
Loading historical data...
Loading historical data...
Loading historical data...
Other satellites on launch #108 in the year 2018 (2018-12-21 UTC)

HONGYUN 1 Visibility forecast

Observer location: undefined°, undefined

Span
Click to sort rows by Start time (UTC) header in descending order
Start Az.
Max El. time (UTC)
Max El. Az.
Max El.
End time (UTC)
End Az.
11 mins2024-12-12 01:05:25.181Z149.598° SSE2024-12-12 01:10:25.181Z84.85° E42.411°2024-12-12 01:16:25.181Z351.788° N
7 mins2024-12-12 02:53:25.181Z236.622° WSW2024-12-12 02:56:25.181Z269.83° W18.716°2024-12-12 03:00:25.181Z309.788° NW
11 mins2024-12-12 14:01:25.181Z26.705° NE2024-12-12 14:06:25.181Z88.401° E39.264°2024-12-12 14:12:25.181Z176.714° S
9 mins2024-12-12 15:47:25.181Z344.154° N2024-12-12 15:51:25.181Z298.955° NW23.853°2024-12-12 15:56:25.181Z246.739° WSW
|